User: anonymous   Login
Location: Caltech
(34.1382°N, 118.1253°W)
Time: 09:19:30
(UTC-07:00)
Language:

TMSAT-1 - Orbit

View from above orbital plane
View from above orbital plane
View from above satellite
View from above satellite

Ground track
Ground track

The orbit data is extracted from the following two-line orbital elements,

1 25396U 98043C   15149.02072913  .00000054  00000-0  41687-4 0  9992
2 25396 098.4886 103.1209 0002864 020.2868 042.9333 14.24319263877384
Epoch (UTC): 29 May 2015 00:29:50
Eccentricity: 0.0002864
inclination: 98.4886°
perigee height: 809 km
apogee height: 813 km
right ascension of ascending node: 103.1209°
argument of perigee: 20.2868°
revolutions per day: 14.24319263
mean anomaly at epoch: 42.9333°
orbit number at epoch: 87738

The dashed part of the orbit path shows where the satellite is in the earth's shadow,  

DLR